Regional Weather Roundup
Issued by NWS

Home | Current Version | Previous Version | Text Only | Print | Product List | Glossary On
Versions: 1 2 3 4 5 6 7 8 9 10 11 12 13 14 15 16 17 18 19 20 21 22 23 24 25 26 27 28 29 30 31 32 33 34 35 36 37 38 39 40 41 42 43 44 45 46 47 48 49 50
000
ASUS44 KJAN 211010
RWRMS

MISSISSIPPI HOURLY WEATHER ROUNDUP
NATIONAL WEATHER SERVICE JACKSON MS
500 AM CDT TUE OCT 21 2014

NOTE: "FAIR: INDICATES FEW OR NO CLOUDS BELOW 12,000 FEET WITH NO
SIGNIFICANT WEATHER AND/OR OBSTRUCTIONS TO VISIBILITY.

MSZ001>002-007>008-010>013-018>021-025>028-034>036-211100-
NORTHWEST MISSISSIPPI

CITY           SKY/WX    TMP DP  RH WIND       PRES   REMARKS
CLARKSDALE     FAIR      54  54 100 CALM      30.05R
CLEVELAND      FAIR      53  53 100 CALM      30.04R
GREENWOOD      CLEAR     50  48  93 CALM      30.04S
GREENVILLE     CLEAR     55  54  96 CALM      30.04R
GRENADA          N/A    N/A N/A N/A MISG        N/A
OLIVE BRANCH   CLEAR     52  52 100 CALM      30.04R
OXFORD         FAIR      46  46 100 CALM      30.06R
TUNICA         SUNNY     52  50  93 CALM      30.05R
$$

MSZ003>006-009-014>017-022>024-029>033-037>039-211100-
NORTHEAST MISSISSIPPI

CITY           SKY/WX    TMP DP  RH WIND       PRES   REMARKS
COLUMBUS AFB   CLEAR     47  47 100 CALM      30.04R
CORINTH        FAIR      48  46  93 CALM      30.03R
GOLDN TRIANGLE CLEAR     48  45  87 CALM      30.03S
STARKVILLE     FAIR      46  45  93 CALM      30.04S
TUPELO         CLEAR     50  48  93 CALM      30.03S
$$

MSZ040-058-211100-
CENTRAL MISSISSIPPI

CITY           SKY/WX    TMP DP  RH WIND       PRES   REMARKS
JACKSON INTL   CLEAR     51  49  92 CALM      30.05R
JACKSON HAWKNS CLEAR     54  49  83 CALM      30.05R
MERIDIAN KEY   CLEAR     47  45  93 S3        30.04R
MERIDIAN NAS   CLEAR     49  47  93 CALM      30.04R
RAYMOND        FAIR      48  45  87 MISG      30.05R
VICKSBURG      MOCLDY    49  48  97 CALM      30.06R
$$

MSZ059>079-211100-
SOUTH MISSISSIPPI

CITY           SKY/WX    TMP DP  RH WIND       PRES   REMARKS
BROOKHAVEN     FAIR      48  48 100 CALM      30.06R
COLUMBIA         N/A    N/A N/A N/A MISG        N/A
HATTIESBURG    CLEAR     49  48  97 CALM      30.04R
MCCOMB         CLEAR     54  49  83 CALM      30.04R
NATCHEZ        CLEAR     52  48  87 CALM      30.05R
PINE BELT      CLEAR     52  46  82 CALM      30.05R
$$

MSZ080>082-211100-
COASTAL MISSISSIPPI

CITY           SKY/WX    TMP DP  RH WIND       PRES   REMARKS
BILOXI         CLEAR     57  51  82 NE5       30.02R
PASCAGOULA     CLEAR     47  46  97 CALM      30.02R
GULFPORT       CLEAR     54  51  90 CALM      30.01R
$$



USA.gov is the U.S. government's official web portal to all federal, state and local government web resources and services.